Regional Weather Roundup
Issued by NWS Kansas City/Pleasant Hill, MO

Home | Current Version | Previous Version | Text Only | Print | Product List | Glossary On
Versions: 1 2 3 4 5 6 7 8 9 10 11 12 13 14 15 16 17 18 19 20 21 22 23 24 25 26 27 28 29 30 31 32 33 34 35 36 37 38 39 40 41 42 43 44 45 46 47 48 49 50
000
ASUS43 KEAX 300011
RWREAX

WEATHER ROUNDUP FOR EASTERN KANSAS AND NORTHWEST MISSOURI
NATIONAL WEATHER SERVICE KANSAS CITY/PLEASANT HILL MO
700 PM CDT FRI AUG 29 2014

KSZ040-057-103>105-MOZ028-029-037-043-300100-
...KANSAS CITY METROPOLITAN AREA...

CITY           SKY/WX    TMP DP  RH WIND       PRES   REMARKS
K.C. INTL      TSTM      74  69  85 S24G35    29.81R
6HR MIN TEMP:  71; 6HR MAX TEMP:  83; 6HR PCP:  0.01;

K.C. DOWNTOWN  PTCLDY    83  67  58 S10       29.78F
6HR MIN TEMP:  73; 6HR MAX TEMP:  86; 6HR PCP: TRACE;

LEES SUMMIT    NOT AVBL
OLATHE - IXD   NOT AVBL
OLATHE - OJC   NOT AVBL
LAWRENCE       CLOUDY    88  63  43 S8        29.77F

$$

MOZ001>008-011>017-020>025-030>033-038>040-044>046-053-054-300100-
...NORTHERN AND CENTRAL MISSOURI...

CITY           SKY/WX    TMP DP  RH WIND       PRES   REMARKS
ST. JOSEPH     NOT AVBL
MOSBY          CLEAR     79  66  65 SE3       29.80S
WHITEMAN AFB   PTCLDY    80  69  67 SW8       29.83F
6HR MIN TEMP:  73; 6HR MAX TEMP:  82; 6HR PCP:  0.05;

CLINTON        PTCLDY    84  70  61 CALM      29.84F
SEDALIA        NOT AVBL
WARSAW         NOT AVBL
MARSHALL       MOCLDY    81  70  69 S7        29.84F
CHILLICOTHE      N/A     79  70  74 S6        29.82S
6HR MIN TEMP:  73; 6HR MAX TEMP:  82; 6HR PCP:  0.27;

MOBERLY        PTCLDY    79  70  73 SW6       29.84S
KIRKSVILLE     MOCLDY    78  71  79 SW9       29.83S
6HR MIN TEMP:  72; 6HR MAX TEMP:  83; 6HR PCP:  0.24;


$$

MOZ041-047>049-056>058-063>065-088>090-097-300100-
...EASTERN AND SOUTHERN MISSOURI...

CITY           SKY/WX    TMP DP  RH WIND       PRES   REMARKS
ST. LOUIS INTL MOCLDY    85  67  54 W12       29.86R
6HR MIN TEMP:  85; 6HR MAX TEMP:  93;

SPIRIT OF STL  CLOUDY    77  69  76 W5        29.85S
COLUMBIA       MOCLDY    78  73  84 S7        29.85S
MEXICO         PTCLDY   N/A N/A N/A S7        29.85S
HANNIBAL       MOCLDY    75  72  88 S5        29.84S
LEBANON        CLOUDY    73  70  88 S5        29.90R
OSAGE BEACH    CLOUDY    77  66  69 SW7       29.85F
SPRINGFIELD    CLOUDY    84  64  50 W8        29.88S
BRANSON        MOCLDY    75  68  78 S9        29.93
NEVADA         CLEAR     84  64  51 SW5       29.85S
WEST PLAINS    MOCLDY    75  67  76 S6        29.94R

$$

IAZ060-094-KSZ022-034>040-054-083-096-NEZ052-066-093-300100-
...KANSAS...SOUTHEAST NEBRASKA AND IOWA...

CITY           SKY/WX    TMP DP  RH WIND       PRES   REMARKS
TOPEKA         PTSUNNY   79  66  64 VRB5      29.81R
MANHATTAN      MOSUNNY   86  64  47 W7        29.78F
CHANUTE        MOSUNNY   85  63  47 SW14      29.84R
WICHITA        TSTM      75  70  83 S12       29.85R
OMAHA          CLOUDY    72  67  84 S6        29.78S
LINCOLN        CLOUDY    72  66  81 CALM      29.80S
LAMONI         CLEAR     73  68  84 S7        29.80F
DES MOINES     CLOUDY    72  68  87 SW6       29.77F

$$



USA.gov is the U.S. government's official web portal to all federal, state and local government web resources and services.